Location: Unspecified
(56.5167°N, 0.0000°E)
Time: 10:29:45
(UTC+02:00)

Resurs 1-4 Rocket - Pass Details

Date: 07 August 2020
Orbit: 799 x 815 km, 98.6° (Epoch: 23 September)

Event Time Altitude Azimuth Distance (km) Brightness Sun altitude
Rises 05:07:56 0° 14° (NNE) 3,342 6.5 -7.9°
Reaches altitude 10° 05:10:27 10° 5° (N) 2,404 5.4 -7.6°
Maximum altitude 05:15:12 35° 302° (WNW) 1,289 3.1 -7.2°
Drops below altitude 10° 05:19:55 10° 238° (WSW) 2,382 3.9 -6.7°
Enters shadow 05:20:28 - 236° (SW) 2,576 4.1 -6.6°
